Time,TemperatureF,DewpointF,PressureIn,WindDirection,WindDirectionDegrees,WindSpeedMPH,WindSpeedGustMPH,Humidity,HourlyPrecipIn,Conditions,Clouds,dailyrainin,SolarRadiationWatts/m^2,SoftwareType,DateUTC
2013-08-28 13:44:00,75.0,74.0,-100.00,SSW,208,3.0,9.0,97,0.00,,,0.16,356.000000,,2013-08-28 17:44:00,
2013-08-28 13:52:00,75.0,74.0,-100.00,SSW,208,3.0,9.0,97,0.00,,,0.16,356.000000,,2013-08-28 17:52:00,
2013-08-28 14:02:00,75.0,74.0,-100.00,SSW,208,3.0,9.0,97,0.00,,,0.16,356.000000,,2013-08-28 18:02:00,
2013-08-28 14:42:00,75.0,74.0,-100.00,SSW,212,3.0,5.0,96,0.00,,,0.16,206.000000,,2013-08-28 18:42:00,
2013-08-28 14:53:00,75.0,74.0,-100.00,SSW,212,3.0,5.0,96,0.00,,,0.16,206.000000,,2013-08-28 18:53:00,
2013-08-28 15:02:00,75.0,74.0,-100.00,SSW,212,3.0,5.0,96,0.00,,,0.16,206.000000,,2013-08-28 19:02:00,
2013-08-28 15:42:00,74.0,74.0,-100.00,South,190,3.0,6.0,100,0.00,,,0.16,121.000000,,2013-08-28 19:42:00,
2013-08-28 15:52:00,74.0,74.0,-100.00,South,190,3.0,6.0,100,0.00,,,0.16,121.000000,,2013-08-28 19:52:00,
2013-08-28 16:03:00,74.0,74.0,-100.00,South,190,3.0,6.0,100,0.00,,,0.16,121.000000,,2013-08-28 20:03:00,
2013-08-28 16:43:00,71.0,71.0,-100.00,ENE,67,4.0,6.0,100,0.04,,,0.20,97.000000,,2013-08-28 20:43:00,
2013-08-28 16:52:00,71.0,71.0,-100.00,ENE,67,4.0,6.0,100,0.04,,,0.20,97.000000,,2013-08-28 20:52:00,
2013-08-28 17:01:00,71.0,71.0,-100.00,ENE,67,4.0,6.0,100,0.04,,,0.20,97.000000,,2013-08-28 21:01:00,
2013-08-28 17:08:00,71.0,71.0,-100.00,East,101,4.0,8.0,100,0.04,,,0.24,146.000000,,2013-08-28 21:08:00,
2013-08-28 17:44:00,71.0,71.0,-100.00,East,101,4.0,8.0,100,0.04,,,0.24,146.000000,,2013-08-28 21:44:00,
2013-08-28 17:57:00,71.0,71.0,-100.00,East,101,4.0,8.0,100,0.04,,,0.24,146.000000,,2013-08-28 21:57:00,
2013-08-28 18:43:00,69.0,69.0,-100.00,East,100,6.0,9.0,100,0.00,,,0.24,65.000000,,2013-08-28 22:43:00,
2013-08-28 18:54:00,69.0,69.0,-100.00,East,100,6.0,9.0,100,0.00,,,0.24,65.000000,,2013-08-28 22:54:00,
2013-08-28 19:03:00,69.0,69.0,-100.00,East,100,6.0,9.0,100,0.00,,,0.24,65.000000,,2013-08-28 23:03:00,
2013-08-28 19:42:00,69.0,69.0,-100.00,ESE,114,6.0,10.0,100,0.00,,,0.24,24.000000,,2013-08-28 23:42:00,
2013-08-28 19:53:00,69.0,69.0,-100.00,ESE,114,6.0,10.0,100,0.00,,,0.24,24.000000,,2013-08-28 23:53:00,
2013-08-28 20:03:00,69.0,69.0,-100.00,ESE,114,6.0,10.0,100,0.00,,,0.24,24.000000,,2013-08-29 00:03:00,
2013-08-28 21:04:00,68.0,68.0,-100.00,ESE,120,6.0,12.0,100,0.00,,,0.24,3.000000,,2013-08-29 01:04:00,
2013-08-28 21:42:00,67.0,67.0,-100.00,ESE,115,6.0,11.0,100,0.00,,,0.24,0.000000,,2013-08-29 01:42:00,
2013-08-28 21:52:00,67.0,67.0,-100.00,ESE,115,6.0,11.0,100,0.00,,,0.24,0.000000,,2013-08-29 01:52:00,
2013-08-28 22:03:00,67.0,67.0,-100.00,ESE,115,6.0,11.0,100,0.00,,,0.24,0.000000,,2013-08-29 02:03:00,
2013-08-28 22:52:00,67.0,67.0,-100.00,NNW,332,2.0,7.0,100,0.00,,,0.24,0.000000,,2013-08-29 02:52:00,
2013-08-28 23:02:00,67.0,67.0,-100.00,NNW,332,2.0,7.0,100,0.00,,,0.24,0.000000,,2013-08-29 03:02:00,
2013-08-28 23:08:00,67.0,67.0,-100.00,East,99,4.0,9.0,100,0.00,,,0.24,0.000000,,2013-08-29 03:08:00,
2013-08-28 23:45:00,67.0,67.0,-100.00,East,99,4.0,9.0,100,0.00,,,0.24,0.000000,,2013-08-29 03:45:00,
2013-08-28 23:57:00,67.0,67.0,-100.00,East,99,4.0,9.0,100,0.00,,,0.24,0.000000,,2013-08-29 03:57:00,